Vertical_Velocity
-4 -5 -4 -3 -5 -7 -8 -1 1 -0 -3 -1 -0 0 -0 -0 -0 -1 -2 -3 -4 -4 -4 -3 -2 -2 -1 -1 -1 -2 -2 -3 -3 -2 -2 -2 -1 -1 -1 -0 0 0 0 -0 -0 -0 -0 -1 -3 -4 -5 -6 -7 -7 -8 -7 -5 -4 -2 -2 -2 -2 -3 -2 -1 -0 1 1 -0 -2 -3 0 1 1 -1 -1 -2 -3 -2 -0 0 0 -1 1 7 13
-2 -4 -5 -4 -4 -6 -9 -1 3 3 -2 -2 -1 -1 -0 -0 -0 -0 -0 -2 -2 -3 -3 -2 -2 -1 -1 -1 -1 -1 -2 -2 -2 -2 -1 -2 -2 -2 -1 -1 -1 -1 -1 -2 -2 -2 -2 -2 -3 -5 -6 -7 -8 -8 -7 -5 -3 -1 -1 -1 -1 -1 -2 -2 -1 1 2 1 -1 -3 -4 -1 0 0 -2 -2 -2 -2 -3 -2 -1 -1 -1 -1 5 10
-2 -5 -6 -4 -3 -4 -6 -1 3 4 1 -1 -2 -1 -1 -0 -0 -0 0 -0 -1 -2 -2 -2 -2 -1 -0 0 0 -0 -1 -1 -1 -1 -2 -2 -3 -3 -3 -3 -2 -2 -2 -2 -2 -2 -2 -2 -3 -3 -4 -5 -6 -6 -4 -2 0 1 1 1 -0 -1 -2 -2 -1 -0 1 1 0 -2 -4 -2 -1 -1 -3 -2 -1 -0 0 -1 -1 -1 -2 -2 1 4
-2 -6 -8 -5 -3 -2 -2 -0 1 2 2 -0 -1 -1 -0 -1 -1 -0 0 -0 -1 -1 -1 -1 -1 -1 -0 0 1 0 -0 -1 -1 -2 -2 -3 -3 -3 -2 -2 -2 -1 -1 -0 0 1 1 0 0 0 0 0 0 0 1 2 3 3 2 1 0 -1 -2 -2 -2 -1 -1 1 1 1 -1 -1 -2 -2 -3 -2 -0 1 2 0 -1 -1 -1 -3 -2 -1
-1 -4 -8 -6 -5 -4 -1 1 2 1 -0 -0 -0 -0 -0 -1 -1 -1 -1 -1 -0 -0 -0 -1 -1 -1 -0 0 1 1 -0 -1 -1 -2 -2 -2 -2 -2 -1 -1 -0 1 1 1 2 2 2 2 2 2 3 3 3 3 3 3 3 2 1 0 -0 -1 -1 -2 -2 -2 -1 0 2 2 1 -0 -1 -2 -2 -0 1 1 1 0 0 1 1 -2 -2 -1
-2 -3 -5 -5 -6 -6 -3 0 1 1 -1 -1 -1 -0 -0 -1 -1 -2 -1 -1 -0 0 -0 -0 -0 -0 -0 -0 0 1 0 -0 -1 -1 -1 -1 -1 -0 -0 0 1 1 1 1 1 1 0 -0 -1 -1 -1 -1 -1 -0 -0 0 0 -0 -0 -1 -1 -1 -1 -1 -1 -1 -1 1 2 2 1 -0 -1 -1 -0 1 2 1 0 -0 0 1 2 -1 -0 3
-4 -3 -2 -5 -6 -5 -2 -1 1 1 -1 -3 -2 -1 0 -0 -1 -1 -1 -1 -1 -1 -1 -0 -0 -0 -0 -0 -0 -0 -0 -0 -1 -1 -1 -0 -0 -0 0 0 -0 -1 -1 -2 -3 -4 -5 -6 -6 -7 -7 -7 -6 -5 -4 -4 -3 -2 -2 -1 -1 -1 -0 -0 -1 -0 1 2 2 2 -0 -1 -1 -1 -0 1 2 1 0 -0 -0 -0 -2 -2 1 6
-7 -6 -2 -3 -5 -5 -2 0 2 2 -0 -3 -4 -3 -1 -0 0 -0 -1 -1 -2 -2 -1 -0 0 1 0 -0 -0 -1 -1 -0 -0 -0 -0 -0 -0 -0 -0 -1 -2 -3 -4 -5 -6 -6 -6 -6 -6 -6 -6 -6 -6 -5 -5 -4 -4 -3 -2 -2 -1 -1 -1 -0 -0 0 1 3 3 1 -1 -3 -3 -2 -1 1 1 1 -1 -0 0 -0 -3 -2 2 7
-7 -8 -6 -3 -2 -3 -5 -2 2 4 2 -2 -4 -4 -4 -2 -1 -0 -0 -0 -1 -1 -2 -1 1 2 1 0 -1 -1 -1 -0 -0 -0 -0 -0 -0 -1 -2 -3 -4 -4 -4 -4 -3 -3 -2 -2 -1 -1 -1 -1 -1 -1 -2 -2 -2 -2 -2 -1 -1 -1 -1 -1 -1 0 2 4 4 2 -1 -3 -4 -3 -1 -0 0 -0 -1 1 1 1 -1 -1 2 5
-6 -7 -7 -4 -1 -0 -3 -5 -2 3 4 -0 -2 -3 -4 -4 -4 -2 -0 2 1 -0 -2 -1 0 1 1 -0 -2 -2 -2 -1 -0 0 -0 -0 -1 -1 -2 -3 -3 -2 -1 -0 0 1 1 1 2 2 2 2 1 1 -0 -0 -1 -1 -1 -1 -1 -1 -1 -1 -1 0 2 5 5 4 1 -2 -4 -4 -2 -1 -0 -0 -1 1 2 3 3 1 1 2
-8 -6 -5 -5 -2 -0 0 -3 -2 -0 1 -0 -1 -2 -2 -4 -5 -5 -3 0 2 1 -1 -1 -0 0 0 -0 -1 -2 -2 -1 -0 -0 -0 -0 -1 -1 -2 -1 -1 -0 0 0 0 0 1 1 1 1 1 1 0 -0 -0 -1 -1 -0 -0 -0 -0 -0 -1 -1 -1 -0 2 5 7 6 3 -1 -4 -5 -3 -2 -1 -1 -1 0 2 4 5 2 1 1
-7 -6 -5 -5 -4 -2 -1 -1 -1 -0 0 -1 -2 -3 -1 -2 -3 -5 -5 -2 -0 1 1 0 -0 -0 -0 -0 -1 -2 -2 -1 -1 -0 0 -0 -1 -1 -2 -2 -1 -1 -1 -1 -1 -0 -0 -0 -1 -1 -1 -1 -1 -2 -2 -1 -1 -0 0 1 1 0 -0 -0 0 1 3 6 8 8 5 1 -2 -3 -2 -2 -2 -2 -1 1 2 4 4 3 2 1
-5 -4 -4 -5 -4 -2 -1 -1 -1 -1 -0 -1 -2 -3 -3 -2 -3 -4 -5 -3 -1 -0 0 -0 0 0 -0 -1 -2 -2 -3 -2 -1 -0 0 0 -0 -2 -3 -3 -3 -2 -2 -2 -1 -1 -0 -1 -2 -2 -2 -2 -2 -2 -2 -2 -1 0 1 1 1 1 1 1 2 3 5 6 8 8 6 4 1 -0 -2 -3 -4 -3 -2 3 4 3 3 2 0 -0
-4 -3 -3 -4 -3 -1 0 -0 -1 -2 -1 -1 -2 -3 -3 -2 -2 -3 -4 -3 -2 -1 -1 -1 0 1 0 -2 -3 -3 -2 -2 -2 -1 -1 -0 -1 -2 -3 -3 -2 -1 -1 -1 -1 -1 -0 -1 -2 -2 -2 -2 -2 -2 -2 -1 -1 0 1 1 1 1 1 1 2 3 6 6 7 8 8 6 4 3 1 -1 -3 -3 -2 1 2 1 1 -0 -1 -1
-2 -2 -3 -3 -2 -0 1 0 -1 -2 -1 -1 -1 -2 -2 -2 -2 -2 -4 -3 -2 -2 -2 -1 0 1 1 -1 -2 -3 -2 -3 -2 -2 -0 0 -0 -2 -4 -3 -2 -1 -1 -1 -0 1 1 -1 -3 -3 -2 -2 -1 -1 -1 -1 -1 -0 0 0 -0 -0 -0 1 1 2 4 4 5 7 8 6 5 5 5 2 -2 -3 -0 1 3 3 2 -0 -2 -2
-1 -0 -2 -3 -2 0 2 1 -1 -2 -1 -0 -0 -1 -2 -2 -2 -2 -3 -4 -3 -3 -2 -2 -1 1 2 0 -2 -4 -4 -3 -2 -1 0 1 0 -2 -5 -4 -3 -2 -2 -2 -0 1 1 -2 -3 -2 -2 -2 -1 -0 -0 -1 -1 -1 -1 -1 -1 -1 -1 -1 -0 0 2 1 2 5 7 5 4 5 6 1 -2 -4 0 1 4 6 6 1 -1 -3
-0 -0 -2 -2 -2 -0 1 1 -0 -1 -1 -1 -0 -1 -1 -2 -2 -3 -3 -4 -4 -3 -2 -2 -1 -0 2 2 -1 -4 -4 -4 -3 -2 -0 1 -0 -2 -5 -5 -4 -3 -2 -1 -0 0 -1 -4 -4 -3 -2 -1 -0 1 -1 -1 -1 -1 -1 -2 -2 -2 -1 -1 -2 -2 -0 -0 1 2 4 4 3 3 6 1 -3 -4 0 2 2 3 6 3 -0 -3
-1 0 -1 -2 -2 -1 0 1 0 0 -0 -0 -0 -0 -1 -1 -2 -2 -4 -4 -3 -3 -3 -2 -1 -1 1 2 1 -2 -5 -4 -4 -3 -1 0 0 -1 -5 -5 -4 -2 -0 0 1 -0 -2 -3 -3 -2 -3 -1 -1 -1 -3 -3 -3 -2 -2 -2 -2 -2 -2 -1 -2 -2 -2 -0 0 1 1 2 2 3 4 2 -1 -2 -0 1 1 1 1 2 0 -2
-2 0 1 -1 -2 -1 -0 1 1 1 0 -0 -0 -0 -0 -0 -1 -2 -4 -3 -3 -3 -3 -3 -2 -1 -0 2 1 -2 -6 -6 -5 -4 -2 1 2 -0 -5 -5 -4 -3 -1 -0 -0 -1 -2 -1 -1 -1 -2 -1 -2 -3 -4 -3 -3 -3 -3 -3 -2 -3 -3 -2 -1 -1 -2 -0 1 1 1 3 4 4 1 -0 -1 -1 -1 0 1 1 1 3 2 -1
-2 -0 2 0 -2 -3 -2 1 2 2 1 0 0 -0 -0 -0 -1 -2 -3 -3 -3 -3 -3 -3 -2 -1 0 1 -0 -3 -6 -6 -6 -5 -3 1 2 0 -4 -5 -5 -4 -2 -1 -0 -1 -2 -2 -2 -3 -4 -4 -4 -3 -3 -3 -3 -3 -3 -3 -2 -2 -3 -2 -1 0 0 1 2 3 4 4 4 5 3 -0 -1 -1 -1 -0 0 0 1 3 1 -2
-3 -1 2 2 -1 -4 -4 0 2 3 2 1 -0 -1 -1 -1 -1 -2 -2 -3 -3 -3 -3 -2 -1 -0 -0 -1 -0 -1 -4 -5 -5 -5 -4 -1 1 1 -3 -5 -6 -4 -2 1 1 -1 -3 -3 -4 -5 -6 -5 -5 -4 -3 -3 -3 -3 -3 -3 -3 -3 -2 -2 -1 1 1 2 4 5 5 4 4 2 1 2 1 -0 -1 -1 -1 -0 1 2 -0 -4
-4 -3 0 2 0 -2 -3 -0 2 3 3 1 -1 -2 -2 -2 -2 -2 -2 -2 -2 -2 -2 -1 -1 -1 -2 -1 -0 -1 -4 -5 -6 -6 -6 -2 1 3 -2 -6 -7 -5 -2 1 1 -1 -4 -4 -4 -4 -4 -4 -4 -3 -3 -3 -3 -2 -2 -3 -3 -3 -2 -2 -1 1 1 1 3 4 5 4 4 2 1 3 2 1 -0 -0 -0 -0 1 1 -0 -3
-4 -4 -2 -0 -0 -1 -1 -0 1 3 3 1 -1 -2 -2 -3 -3 -3 -1 -0 -0 -1 -1 -1 -2 -2 -2 -2 -2 -2 -4 -5 -6 -7 -7 -3 2 4 -2 -7 -7 -5 -2 1 -0 -3 -5 -5 -4 -3 -2 -2 -2 -2 -3 -3 -3 -2 -2 -2 -3 -3 -3 -3 -1 -0 1 0 1 2 4 5 4 4 4 5 4 2 0 0 -0 0 1 1 0 -2
-2 -3 -3 -1 -1 -0 -1 -0 1 2 2 0 -2 -3 -3 -3 -2 -2 -0 -0 -0 -1 -2 -3 -3 -2 -1 -1 -2 -2 -2 -4 -6 -6 -6 -3 1 2 -2 -7 -7 -5 -1 0 -1 -4 -6 -5 -3 -2 -2 -2 -3 -2 -2 -2 -2 -2 -2 -2 -2 -3 -3 -2 -2 -1 1 0 0 1 3 3 3 4 6 7 6 4 2 1 1 1 1 2 1 -1
-1 -2 -3 -2 -1 -0 -0 -0 0 1 1 -1 -3 -4 -4 -3 -2 -1 -1 -1 -1 -2 -2 -3 -2 -1 -0 -2 -2 -1 -1 -4 -5 -5 -5 -4 -1 0 -1 -5 -5 -4 -2 -1 -3 -5 -6 -4 -3 -2 -2 -2 -2 -2 -2 -2 -1 -1 -2 -2 -2 -3 -3 -2 -2 -2 -1 -0 0 1 2 2 3 4 5 8 7 6 3 2 1 1 1 2 1 1
-1 -3 -3 -2 -1 -0 0 0 0 -0 -0 -1 -2 -2 -2 -2 -2 -2 -2 -2 -1 -2 -2 -3 -2 -1 -1 -3 -2 -1 -1 -4 -5 -5 -6 -6 -3 1 2 -2 -4 -5 -4 -3 -4 -5 -6 -4 -2 -1 -2 -2 -2 -1 -1 -1 -1 -1 -2 -2 -3 -3 -3 -2 -1 -2 -3 -2 -1 1 2 3 4 5 5 7 8 7 4 3 2 2 2 3 2 2
-1 -2 -3 -3 -2 -1 -0 -0 -0 -0 -0 -0 -1 -1 -2 -2 -3 -3 -3 -1 -1 -2 -3 -3 -3 -2 -2 -3 -2 -1 -1 -3 -4 -6 -8 -7 -3 1 4 -1 -4 -6 -6 -5 -4 -4 -5 -3 -1 -0 -1 -1 -0 -1 -1 -2 -2 -2 -2 -3 -3 -3 -3 -3 -2 -2 -4 -3 -2 -0 1 3 4 5 4 6 6 6 3 4 4 4 4 4 4 2
-1 -2 -3 -3 -2 -2 -1 -0 0 0 0 -0 -0 -1 -2 -3 -4 -4 -3 -1 -1 -2 -3 -3 -2 -2 -2 -2 -2 -2 -1 -2 -5 -8 -9 -6 -2 1 4 -2 -5 -6 -6 -5 -4 -4 -4 -2 -0 1 1 0 -0 -1 -2 -3 -4 -4 -4 -4 -3 -3 -3 -3 -3 -3 -4 -3 -2 -1 -0 1 3 4 4 5 4 4 3 4 5 5 6 5 4 2
-1 -2 -2 -2 -2 -2 -1 0 1 1 0 -0 -1 -2 -3 -4 -4 -4 -2 -1 -1 -2 -2 -2 -2 -2 -2 -2 -2 -2 -1 -1 -6 -9 -8 -4 -1 0 2 -2 -4 -4 -5 -6 -5 -5 -4 -3 -1 -0 -1 -1 -1 -1 -1 -4 -5 -6 -5 -4 -4 -3 -3 -4 -4 -4 -4 -3 -1 0 -1 -0 0 2 4 4 3 2 2 4 5 6 6 4 2 0
-0 -1 -1 -2 -1 -1 -0 1 1 1 0 -0 -1 -2 -3 -3 -3 -2 -1 -1 -1 -2 -2 -2 -2 -2 -2 -2 -2 -1 0 -2 -6 -8 -4 -2 -1 -1 1 -0 -1 -2 -5 -6 -6 -5 -4 -2 -1 -2 -3 -2 -1 0 0 -3 -5 -6 -6 -4 -3 -3 -4 -4 -6 -6 -5 -3 -1 1 1 -0 -1 -1 1 2 2 2 2 4 6 6 5 3 1 -0
1 0 -0 -0 -0 -0 0 0 0 0 0 -0 -1 -1 -2 -2 -2 -2 -1 -1 -2 -2 -2 -2 -2 -2 -2 -2 -1 -0 1 -2 -6 -7 -2 -2 -2 -1 1 1 0 -2 -5 -6 -5 -3 -0 2 1 -1 -2 -0 1 2 1 -2 -4 -6 -5 -4 -3 -3 -4 -4 -5 -6 -5 -3 -1 1 1 1 -1 -3 -4 -0 1 1 2 5 7 7 4 2 -0 -2
1 1 1 1 1 1 0 -0 -0 -0 -0 -0 -1 -1 -1 -2 -2 -1 -1 -1 -2 -2 -2 -1 -1 -1 -1 -2 -1 -0 2 -2 -5 -6 -2 -3 -3 -1 1 1 -0 -3 -6 -5 -3 -1 0 2 1 -0 1 1 1 1 1 -1 -3 -5 -4 -4 -4 -4 -3 -3 -3 -4 -5 -2 -1 0 -1 -0 -0 -2 -6 -2 -0 1 2 6 7 6 2 -0 -3 -5
-0 0 0 1 1 1 -0 -0 -0 -0 -0 -0 -1 -1 -1 -1 -1 -1 -1 -2 -2 -2 -1 -1 -1 -1 -1 -2 -1 -0 2 -1 -4 -5 -3 -4 -3 -1 1 0 -1 -2 -4 -4 -3 -3 -4 -2 -1 0 1 -0 -0 1 1 -0 -2 -4 -4 -4 -4 -2 1 1 -1 -3 -5 -3 -1 -1 -2 -2 -1 -1 -4 -4 -2 1 3 7 8 6 3 -1 -4 -4
-1 -1 -1 -1 -0 -0 -0 -0 -0 -0 -0 -1 -1 -1 -1 -1 -2 -2 -2 -2 -1 -1 -1 -1 -1 -1 -1 -2 -1 0 2 -1 -3 -4 -3 -3 -2 -1 0 -0 -1 -1 -3 -4 -4 -4 -4 -1 0 1 -1 -1 0 2 2 1 -1 -3 -4 -4 -3 -1 2 1 -1 -3 -4 -3 -2 -2 -4 -3 -2 -1 -2 -6 -4 -0 2 7 8 6 3 -1 -3 -4
-1 -1 -1 -2 -2 -1 -1 -1 -0 -0 -1 -1 -1 -1 -1 -1 -2 -2 -2 -2 -1 -1 -1 -1 -0 -1 -1 -1 -1 -0 1 -2 -3 -4 -4 -3 -2 -2 -0 -1 -1 -2 -4 -4 -4 -3 -1 2 2 -0 -4 -3 -1 1 2 2 1 -1 -2 -1 -1 0 1 -0 -2 -2 -2 -2 -3 -4 -5 -5 -3 -2 -4 -8 -7 -4 -1 5 7 6 3 1 -1 -3
-1 -1 -1 -1 -2 -2 -1 -1 -1 -0 -0 -0 -1 -1 -1 -1 -2 -2 -2 -2 -1 -1 -0 -0 -0 0 0 -0 -0 0 0 -2 -3 -3 -4 -3 -3 -2 -1 -0 -1 -3 -5 -4 -3 -2 -1 1 1 -1 -4 -4 -2 0 3 3 2 0 -1 -1 -0 -0 0 1 1 1 -0 -2 -4 -4 -4 -5 -5 -5 -5 -9 -8 -5 0 5 6 5 2 1 0 -1
-1 -1 -1 -1 -1 -1 -1 -1 -0 -0 -0 -0 -0 -0 -1 -1 -1 -1 -1 -1 -1 -1 -0 -0 0 1 1 1 0 0 -0 -2 -3 -4 -4 -4 -3 -2 -1 -1 -2 -3 -4 -3 -1 0 -1 -3 -5 -6 -6 -6 -3 2 6 4 -0 -4 -4 -2 -2 -2 -1 1 2 1 -2 -3 -3 -2 -1 -4 -5 -4 -2 -3 -3 -0 5 7 8 6 3 2 1 1
-2 -1 -1 -0 -0 -0 -0 -0 0 0 0 -0 -0 -1 -1 -1 -1 -1 -0 -0 -0 -0 -0 0 0 1 0 -0 -0 -1 -1 -3 -3 -4 -4 -4 -3 -2 -2 -2 -1 -1 -2 -1 1 2 -0 -4 -7 -8 -8 -6 -2 2 5 1 -3 -6 -4 -1 -0 -1 -1 1 0 -1 -3 -1 1 3 2 -2 -5 -4 2 4 4 3 7 8 9 8 6 5 4 4
-2 -1 -0 0 0 0 1 1 1 0 -0 -1 -1 -1 -1 -1 -1 -1 -0 -0 0 0 -0 0 0 -0 -0 -0 -1 -1 -2 -2 -3 -3 -2 -3 -3 -4 -4 -3 -0 1 -1 -2 -1 0 -1 -4 -6 -6 -5 -4 -2 -1 0 -2 -3 -2 3 6 4 1 0 2 1 -0 -1 1 3 3 0 -4 -6 -4 1 5 4 1 1 2 4 6 4 5 5 4
-1 -1 -0 1 1 1 1 1 1 0 -0 -1 -1 -1 -1 -0 -0 -0 -0 -0 0 -0 -1 -1 -1 -1 -0 0 0 0 0 -0 -0 -0 -1 -2 -4 -5 -5 -3 -1 -0 -1 -3 -2 -0 0 -4 -6 -6 -6 -5 -4 -4 -4 -4 -4 0 7 4 -3 -8 -5 -1 -0 -1 0 1 1 -1 -4 -7 -7 -5 -2 -1 -4 -8 -9 -4 -0 1 -0 -2 -3 -3
-0 -0 0 1 1 1 2 1 1 1 1 1 0 0 1 1 0 -0 -0 0 0 -0 -0 -0 -0 -0 1 2 3 4 4 3 2 1 0 -2 -4 -5 -5 -3 -2 -1 -2 -4 -2 0 2 -2 -4 -6 -8 -7 -5 -3 -2 -2 -2 -1 1 -4 -10 -13 -8 -4 -3 -2 0 3 3 2 -0 -2 -2 -1 -1 -2 -7 -12 -11 -4 -2 -2 -1 -4 -9 -13
0 1 1 1 1 2 2 2 2 1 1 1 1 1 2 1 0 0 1 2 3 2 1 1 1 1 2 4 4 5 5 4 3 1 -1 -3 -4 -4 -4 -3 -3 -2 -3 -4 -3 -1 1 -1 -2 -3 -4 -4 -4 -4 -3 -1 -0 -0 -1 -3 2 7 8 1 -2 -1 4 5 4 3 2 -0 -1 -1 -1 -5 -10 -12 -5 -4 -6 -8 -9 -9 -11 -13
1 2 2 2 2 2 2 2 2 2 2 3 3 3 3 2 2 3 4 6 6 6 4 2 2 2 3 3 3 3 3 2 1 -1 -2 -4 -4 -4 -4 -3 -3 -3 -4 -4 -3 -1 0 -2 -2 -1 -0 -3 -4 -6 -6 -5 -5 -3 2 3 6 5 -8 -16 -11 -1 5 5 4 2 -1 -3 -1 0 1 -3 -6 -6 -1 -4 -6 -8 -10 -11 -10 -10
1 2 3 3 3 3 2 3 3 4 4 4 4 4 4 4 5 6 8 8 6 4 3 3 2 2 2 2 2 1 1 0 -1 -3 -4 -3 -3 -3 -3 -4 -4 -4 -3 -3 -2 -1 -2 -4 -3 -2 -1 -6 -8 -9 -7 -6 -6 -5 -1 1 -4 -16 -36 -32 -18 -4 3 5 4 1 -1 1 6 12 15 12 8 4 3 -0 -1 -0 1 0 -2 -5
1 2 3 3 3 2 2 3 4 4 4 4 4 4 5 5 6 8 10 9 6 4 3 3 3 3 3 2 1 -0 -1 -2 -4 -4 -4 -2 -1 -1 -2 -4 -4 -5 -4 -4 -3 -3 -4 -5 -3 -2 -3 -7 -10 -11 -10 -8 -6 -3 -0 -3 -7 -10 -8 -2 1 2 2 4 1 -3 -2 3 9 15 19 18 13 8 7 5 3 0 -0 -0 -2 -4
1 2 3 4 3 2 2 2 3 4 3 3 3 4 6 7 8 10 10 7 5 3 3 4 4 4 4 3 1 -0 -1 -2 -2 -1 -1 1 1 1 -2 -4 -5 -6 -6 -7 -7 -6 -6 -5 -5 -5 -7 -10 -11 -11 -9 -9 -7 -4 -4 -6 -7 -3 11 9 2 -3 -1 2 1 -2 0 4 6 8 10 14 14 12 12 9 2 -4 -6 -8 -8 -9
1 2 3 4 3 3 2 2 2 3 3 2 2 3 5 8 9 10 8 5 3 2 3 4 4 5 8 7 6 4 3 3 4 5 4 4 3 1 -2 -4 -4 -5 -5 -5 -3 -2 -1 -1 -4 -8 -12 -13 -12 -11 -8 -6 -6 -7 -8 -9 -8 -7 -6 -8 -10 -8 -0 5 4 3 6 7 5 4 4 13 17 18 17 10 3 -3 -5 -8 -10 -9
1 2 3 4 4 3 2 2 2 3 3 2 2 3 4 6 6 5 3 2 2 2 4 3 3 4 4 2 4 6 8 8 9 9 7 5 3 0 -2 -2 -2 -1 0 3 4 5 4 1 -3 -7 -11 -13 -13 -12 -8 -6 -6 -8 -8 -8 -8 -9 -8 -1 3 6 10 8 5 4 5 3 2 2 7 14 16 15 11 6 1 -1 -2 -6 -8 -10
2 2 2 3 4 4 4 3 3 4 4 4 4 4 4 2 0 0 1 2 3 3 3 3 2 1 -0 -1 2 8 12 12 12 10 7 4 2 -0 -1 -1 -0 1 4 7 7 6 2 -1 -4 -7 -10 -11 -12 -11 -8 -6 -7 -6 -3 -4 -8 -9 -4 8 14 15 13 9 6 5 4 2 1 1 4 6 7 6 4 3 1 -0 -1 -4 -6 -8
3 3 2 2 2 3 4 4 5 5 6 6 5 4 3 1 1 2 3 3 3 3 3 3 2 0 -2 -0 5 11 13 12 10 7 3 0 -1 -2 -2 -1 0 3 7 8 6 4 1 -1 -3 -5 -7 -8 -9 -9 -8 -9 -7 -4 2 -3 -9 -11 -5 4 9 11 10 7 6 6 9 12 14 12 8 4 5 7 8 6 4 1 -2 -2 -3 -4
4 4 3 1 0 0 1 2 3 4 5 4 4 3 2 3 3 4 3 3 3 4 4 3 2 1 -0 3 8 10 10 8 6 3 -0 -2 -2 -1 1 2 4 6 8 7 5 3 1 0 -0 -1 -2 -3 -4 -6 -7 -12 -11 -6 2 -4 -8 -10 -7 3 10 14 14 10 8 8 10 11 12 10 6 4 6 8 8 7 3 -0 -3 -2 -2 -4
Height
2846 2846 2846 2845 2844 2844 2844 2844 2844 2843 2843 2843 2843 2842 2841 2841 2841 2840 2840 2840 2840 2840 2840 2841 2841 2843 2843 2845 2846 2847 2848 2849 2850 2852 2853 2855 2856 2858 2859 2861 2863 2865 2867 2869 2871 2873 2876 2878 2880 2883 2886 2889 2892 2895 2898 2903 2907 2912 2917 2921 2925 2929 2934 2938 2943 2948 2953 2958 2963 2967 2971 2975 2978 2982 2986 2989 2993 2997 3001 3005 3009 3013 3017 3020 3022 3025
2844 2844 2843 2843 2843 2842 2842 2842 2842 2842 2840 2840 2840 2839 2839 2839 2838 2838 2838 2838 2838 2838 2838 2838 2839 2840 2841 2843 2844 2845 2846 2847 2848 2849 2851 2853 2854 2856 2857 2859 2861 2863 2865 2867 2869 2871 2873 2876 2878 2881 2884 2886 2889 2893 2897 2901 2906 2910 2914 2918 2922 2926 2931 2935 2940 2945 2950 2955 2959 2963 2968 2972 2975 2979 2983 2986 2990 2994 2998 3002 3006 3010 3013 3017 3020 3022
2843 2842 2841 2841 2840 2840 2840 2840 2840 2840 2838 2838 2837 2837 2837 2836 2836 2836 2836 2836 2836 2836 2836 2836 2837 2838 2839 2840 2842 2843 2844 2845 2846 2847 2849 2850 2852 2853 2855 2857 2859 2861 2863 2865 2867 2869 2872 2874 2877 2879 2882 2885 2888 2892 2896 2900 2904 2908 2911 2915 2919 2923 2927 2932 2937 2942 2947 2952 2956 2960 2964 2968 2973 2976 2980 2984 2988 2992 2996 2999 3003 3007 3011 3014 3017 3020
2841 2840 2839 2838 2838 2838 2838 2838 2838 2837 2837 2836 2835 2834 2834 2834 2834 2834 2834 2834 2834 2834 2834 2834 2835 2836 2837 2838 2839 2841 2842 2843 2844 2845 2847 2848 2850 2852 2853 2855 2857 2859 2861 2863 2865 2868 2870 2872 2875 2878 2881 2884 2887 2891 2894 2898 2901 2905 2908 2912 2916 2920 2924 2928 2933 2938 2944 2948 2953 2957 2961 2966 2970 2974 2978 2981 2985 2989 2993 2997 3001 3004 3008 3011 3015 3018
2839 2838 2837 2836 2836 2836 2836 2836 2836 2835 2834 2833 2833 2832 2832 2832 2831 2831 2832 2832 2832 2832 2833 2833 2833 2834 2835 2836 2837 2838 2839 2841 2842 2843 2844 2846 2848 2850 2852 2853 2855 2857 2859 2861 2863 2865 2867 2869 2872 2875 2878 2881 2884 2888 2891 2894 2898 2902 2905 2909 2913 2917 2921 2926 2931 2936 2941 2945 2950 2954 2958 2963 2967 2971 2975 2978 2982 2986 2990 2994 2998 3002 3005 3009 3012 3016
2837 2836 2835 2835 2834 2834 2834 2834 2834 2833 2832 2831 2831 2830 2830 2829 2829 2829 2829 2830 2830 2830 2830 2831 2831 2832 2833 2834 2835 2836 2838 2838 2840 2841 2843 2844 2846 2848 2849 2851 2853 2855 2856 2858 2860 2862 2864 2866 2868 2871 2874 2877 2880 2884 2887 2891 2895 2898 2902 2906 2910 2914 2918 2923 2928 2933 2938 2943 2947 2951 2955 2960 2964 2968 2972 2976 2979 2983 2987 2991 2995 2998 3003 3006 3010 3013
2835 2834 2834 2833 2833 2832 2832 2832 2832 2831 2830 2829 2828 2828 2828 2828 2827 2827 2827 2827 2828 2828 2828 2829 2830 2830 2831 2832 2833 2834 2835 2837 2838 2839 2840 2842 2843 2845 2847 2848 2850 2852 2854 2855 2857 2859 2861 2863 2865 2868 2871 2874 2877 2881 2885 2888 2892 2896 2899 2903 2907 2911 2916 2920 2925 2930 2935 2940 2944 2948 2952 2957 2961 2965 2969 2973 2976 2980 2984 2988 2992 2995 2999 3003 3007 3010
2833 2832 2832 2832 2831 2831 2830 2830 2830 2829 2828 2827 2826 2826 2825 2826 2825 2825 2825 2825 2826 2826 2827 2827 2828 2829 2830 2830 2831 2832 2833 2834 2836 2837 2838 2840 2841 2843 2844 2846 2848 2849 2851 2853 2855 2857 2859 2862 2864 2867 2870 2873 2876 2879 2883 2886 2890 2893 2897 2901 2904 2908 2913 2918 2923 2927 2932 2937 2941 2946 2950 2953 2958 2962 2966 2970 2974 2977 2981 2985 2989 2993 2997 3001 3004 3007
2832 2830 2830 2830 2829 2829 2828 2828 2828 2828 2827 2825 2824 2823 2823 2823 2823 2823 2823 2824 2824 2824 2824 2825 2826 2827 2828 2828 2829 2830 2831 2832 2833 2835 2836 2838 2839 2841 2842 2844 2846 2848 2850 2852 2854 2857 2859 2861 2864 2866 2869 2872 2875 2878 2881 2884 2888 2891 2894 2898 2902 2906 2910 2915 2920 2924 2929 2934 2939 2943 2947 2951 2955 2959 2963 2967 2971 2975 2978 2983 2987 2990 2994 2998 3001 3005
2830 2829 2828 2828 2828 2827 2826 2826 2826 2826 2825 2824 2823 2822 2821 2821 2821 2821 2822 2822 2823 2823 2823 2823 2824 2825 2826 2827 2828 2828 2829 2830 2832 2833 2834 2836 2837 2838 2840 2842 2844 2846 2848 2850 2853 2855 2857 2859 2862 2864 2867 2869 2872 2875 2878 2882 2885 2888 2892 2895 2899 2903 2908 2912 2917 2922 2927 2932 2936 2941 2945 2948 2952 2956 2961 2965 2968 2973 2976 2980 2984 2988 2991 2995 2998 3002
2829 2828 2827 2826 2826 2826 2825 2824 2824 2823 2823 2822 2821 2821 2820 2820 2819 2819 2819 2820 2821 2822 2822 2822 2822 2823 2824 2825 2826 2827 2827 2828 2830 2831 2833 2834 2835 2837 2838 2840 2842 2844 2846 2848 2850 2852 2854 2856 2859 2861 2864 2866 2869 2872 2875 2879 2882 2886 2889 2893 2897 2901 2905 2909 2914 2919 2924 2929 2934 2938 2942 2946 2950 2954 2958 2962 2966 2970 2974 2978 2981 2985 2988 2992 2996 2999
2827 2826 2825 2825 2824 2823 2823 2823 2822 2822 2821 2820 2819 2819 2819 2818 2818 2817 2817 2818 2819 2820 2820 2820 2821 2822 2823 2823 2824 2824 2825 2827 2828 2829 2831 2832 2833 2835 2836 2838 2840 2842 2843 2845 2848 2850 2852 2854 2856 2858 2861 2864 2867 2870 2873 2876 2879 2883 2886 2890 2894 2898 2903 2907 2912 2916 2921 2927 2931 2936 2939 2944 2948 2952 2955 2959 2963 2968 2971 2975 2978 2982 2986 2989 2993 2997
2826 2825 2824 2823 2822 2822 2821 2821 2820 2820 2819 2818 2818 2817 2817 2817 2817 2816 2816 2816 2817 2818 2818 2819 2819 2820 2821 2821 2822 2823 2823 2824 2826 2827 2828 2830 2831 2833 2834 2836 2838 2839 2841 2843 2845 2848 2849 2852 2854 2856 2859 2862 2864 2867 2870 2873 2877 2880 2884 2887 2891 2895 2900 2904 2909 2914 2919 2924 2928 2933 2937 2941 2945 2949 2953 2957 2961 2965 2968 2972 2976 2979 2983 2987 2990 2994
2824 2823 2822 2821 2820 2820 2819 2819 2818 2817 2817 2817 2816 2816 2815 2815 2815 2815 2814 2814 2815 2816 2816 2817 2818 2819 2819 2820 2820 2821 2821 2822 2823 2825 2827 2828 2829 2830 2832 2833 2835 2837 2839 2841 2843 2845 2847 2849 2851 2854 2857 2859 2862 2865 2868 2871 2874 2878 2881 2884 2888 2892 2897 2901 2906 2911 2916 2920 2925 2929 2933 2938 2942 2946 2949 2953 2958 2962 2966 2970 2973 2977 2981 2984 2987 2991
2822 2821 2820 2819 2818 2818 2818 2817 2816 2815 2815 2815 2814 2814 2814 2813 2813 2813 2813 2813 2813 2814 2814 2815 2816 2817 2818 2818 2818 2819 2819 2820 2822 2823 2825 2826 2827 2828 2830 2831 2833 2835 2837 2839 2841 2843 2844 2847 2849 2851 2854 2857 2860 2863 2866 2868 2872 2875 2878 2882 2885 2889 2893 2898 2903 2908 2912 2917 2922 2926 2930 2934 2938 2942 2946 2950 2955 2959 2963 2967 2971 2974 2978 2981 2985 2988
2820 2819 2818 2817 2816 2816 2816 2815 2814 2813 2813 2813 2813 2813 2812 2812 2812 2812 2812 2811 2812 2812 2813 2813 2814 2815 2817 2817 2817 2817 2818 2818 2820 2821 2822 2824 2826 2827 2828 2829 2831 2833 2835 2837 2838 2840 2843 2844 2847 2849 2852 2855 2858 2860 2863 2866 2869 2872 2875 2879 2883 2887 2891 2895 2899 2904 2909 2913 2918 2923 2927 2931 2935 2939 2943 2947 2952 2957 2961 2964 2968 2972 2975 2978 2982 2986
2818 2818 2816 2815 2814 2814 2814 2813 2813 2812 2812 2811 2811 2811 2811 2811 2811 2810 2810 2810 2810 2810 2811 2811 2812 2813 2815 2816 2816 2816 2816 2816 2817 2819 2820 2822 2824 2825 2826 2827 2829 2831 2833 2835 2837 2838 2841 2843 2845 2847 2850 2852 2855 2858 2860 2863 2866 2869 2873 2876 2880 2884 2888 2892 2897 2901 2906 2910 2915 2920 2925 2929 2933 2937 2941 2944 2949 2954 2958 2962 2965 2969 2972 2976 2980 2983
2817 2816 2815 2814 2813 2813 2812 2812 2811 2811 2810 2810 2809 2809 2809 2809 2809 2809 2808 2808 2808 2808 2809 2810 2811 2812 2813 2814 2814 2814 2813 2814 2815 2817 2819 2821 2822 2823 2824 2825 2827 2829 2831 2833 2834 2837 2839 2841 2843 2845 2848 2850 2853 2855 2858 2861 2863 2867 2870 2873 2878 2881 2886 2890 2894 2898 2903 2908 2913 2917 2922 2926 2930 2934 2938 2942 2946 2951 2955 2959 2963 2966 2970 2974 2978 2981
2815 2814 2813 2812 2811 2811 2811 2810 2810 2809 2809 2808 2808 2808 2808 2808 2807 2807 2807 2807 2807 2807 2808 2808 2809 2810 2811 2812 2813 2812 2812 2813 2814 2815 2817 2818 2820 2822 2823 2823 2825 2827 2829 2831 2833 2835 2836 2838 2840 2843 2845 2848 2850 2853 2856 2858 2861 2864 2868 2871 2875 2879 2883 2888 2892 2896 2901 2905 2910 2915 2919 2923 2928 2931 2935 2939 2943 2948 2952 2956 2960 2964 2968 2972 2975 2979
2813 2812 2812 2811 2810 2809 2809 2809 2808 2808 2807 2807 2806 2806 2806 2806 2806 2805 2805 2805 2805 2806 2806 2807 2808 2808 2809 2810 2811 2811 2811 2811 2812 2813 2815 2817 2818 2820 2821 2822 2823 2825 2827 2829 2831 2833 2834 2836 2838 2841 2843 2846 2848 2851 2853 2856 2859 2862 2866 2869 2873 2877 2881 2885 2890 2894 2898 2903 2908 2912 2917 2921 2925 2928 2932 2936 2940 2944 2949 2953 2957 2961 2965 2969 2973 2976
2810 2810 2810 2809 2808 2807 2807 2807 2807 2807 2806 2805 2805 2804 2804 2804 2804 2804 2804 2804 2804 2804 2805 2805 2806 2807 2808 2808 2809 2810 2809 2810 2811 2812 2813 2815 2817 2818 2819 2820 2821 2823 2825 2827 2828 2830 2832 2834 2836 2838 2841 2844 2846 2849 2852 2854 2857 2860 2863 2867 2871 2874 2879 2883 2888 2892 2896 2900 2905 2909 2914 2918 2922 2926 2930 2934 2938 2942 2946 2950 2954 2958 2963 2966 2970 2973
2808 2808 2808 2807 2806 2806 2805 2805 2805 2805 2805 2804 2803 2803 2802 2802 2802 2802 2803 2803 2803 2803 2803 2803 2804 2805 2806 2807 2807 2808 2808 2808 2809 2810 2811 2813 2815 2817 2818 2818 2819 2821 2823 2825 2827 2828 2830 2832 2834 2836 2839 2842 2844 2847 2850 2853 2855 2858 2861 2865 2868 2872 2876 2881 2885 2889 2894 2898 2902 2907 2911 2916 2920 2924 2928 2932 2935 2939 2943 2948 2952 2956 2960 2964 2968 2971
2807 2806 2805 2805 2805 2804 2804 2803 2803 2804 2803 2802 2801 2801 2800 2800 2800 2800 2801 2801 2802 2802 2802 2802 2803 2803 2804 2805 2806 2806 2807 2807 2807 2808 2810 2811 2813 2815 2816 2816 2818 2819 2821 2823 2825 2826 2828 2830 2832 2834 2837 2840 2843 2845 2848 2851 2853 2856 2859 2863 2866 2870 2874 2878 2883 2887 2891 2895 2899 2904 2908 2913 2917 2921 2926 2929 2933 2937 2940 2945 2949 2953 2958 2962 2965 2969
2806 2805 2804 2803 2803 2803 2802 2802 2802 2802 2802 2801 2800 2799 2799 2799 2799 2799 2800 2800 2800 2800 2800 2800 2801 2802 2803 2803 2804 2805 2805 2806 2806 2807 2808 2809 2811 2813 2814 2815 2816 2817 2819 2821 2823 2824 2826 2828 2830 2833 2835 2838 2841 2843 2846 2849 2852 2854 2857 2860 2864 2868 2871 2876 2880 2884 2888 2893 2897 2901 2906 2910 2914 2918 2923 2927 2930 2934 2938 2942 2947 2951 2955 2959 2963 2967
2803 2802 2802 2801 2801 2801 2800 2800 2801 2801 2801 2800 2799 2798 2798 2798 2798 2798 2798 2798 2798 2798 2799 2799 2799 2800 2801 2802 2802 2803 2804 2804 2805 2805 2806 2807 2809 2812 2813 2813 2814 2815 2817 2819 2821 2822 2824 2826 2828 2831 2834 2837 2839 2842 2844 2847 2849 2852 2855 2858 2861 2865 2869 2873 2877 2882 2885 2890 2894 2898 2903 2907 2912 2916 2921 2924 2928 2931 2935 2940 2944 2948 2953 2957 2961 2964
2801 2800 2799 2799 2799 2799 2799 2799 2799 2799 2799 2798 2797 2797 2797 2797 2797 2797 2797 2797 2797 2797 2797 2797 2798 2799 2800 2800 2801 2802 2803 2803 2803 2804 2804 2806 2808 2810 2812 2812 2812 2813 2815 2817 2819 2820 2822 2824 2827 2829 2832 2835 2837 2840 2843 2845 2848 2850 2853 2856 2859 2863 2866 2870 2874 2879 2883 2887 2891 2896 2900 2905 2909 2914 2918 2922 2925 2929 2933 2937 2942 2946 2950 2955 2958 2962
2799 2798 2798 2797 2797 2797 2797 2797 2796 2796 2796 2796 2796 2796 2795 2795 2795 2795 2795 2796 2796 2796 2796 2796 2797 2798 2798 2799 2800 2800 2801 2802 2802 2802 2803 2804 2806 2808 2810 2810 2811 2812 2813 2815 2817 2818 2820 2822 2824 2828 2830 2833 2835 2838 2840 2843 2845 2848 2850 2853 2857 2860 2864 2868 2872 2876 2880 2884 2889 2893 2898 2902 2907 2912 2917 2920 2923 2926 2931 2935 2940 2944 2948 2953 2956 2960
2797 2796 2795 2795 2795 2795 2795 2795 2795 2795 2795 2795 2795 2794 2794 2793 2793 2794 2794 2795 2795 2794 2794 2795 2795 2796 2797 2797 2798 2799 2800 2801 2801 2801 2801 2803 2804 2807 2808 2809 2809 2810 2812 2813 2814 2816 2818 2820 2823 2825 2828 2830 2833 2836 2838 2841 2843 2845 2848 2851 2854 2858 2861 2865 2869 2873 2878 2882 2886 2891 2895 2900 2904 2909 2914 2918 2921 2924 2928 2933 2938 2942 2946 2950 2954 2957
2795 2794 2793 2793 2793 2793 2793 2793 2793 2793 2793 2793 2793 2793 2793 2793 2793 2793 2793 2793 2793 2793 2793 2793 2794 2795 2795 2796 2797 2798 2799 2799 2799 2799 2800 2801 2803 2805 2807 2808 2808 2809 2810 2811 2813 2814 2817 2819 2821 2823 2826 2829 2832 2834 2837 2839 2841 2843 2846 2849 2852 2855 2859 2863 2867 2871 2875 2879 2883 2888 2893 2897 2902 2907 2911 2915 2919 2923 2927 2932 2936 2940 2944 2948 2951 2955
2793 2792 2792 2791 2791 2791 2791 2791 2791 2792 2792 2792 2792 2792 2791 2791 2791 2791 2792 2792 2792 2792 2792 2792 2793 2793 2794 2795 2796 2797 2798 2798 2798 2798 2799 2800 2802 2804 2806 2807 2807 2808 2808 2810 2811 2813 2815 2817 2819 2822 2824 2827 2830 2833 2835 2837 2839 2842 2844 2847 2850 2853 2857 2860 2864 2868 2873 2877 2881 2886 2891 2895 2899 2904 2908 2913 2916 2920 2925 2930 2934 2938 2941 2945 2949 2952
2792 2791 2790 2790 2790 2790 2790 2790 2790 2790 2790 2790 2790 2790 2790 2790 2790 2790 2790 2790 2790 2790 2791 2791 2792 2792 2793 2793 2794 2796 2797 2797 2797 2797 2798 2799 2801 2803 2804 2805 2806 2806 2807 2808 2809 2811 2812 2815 2818 2820 2822 2825 2828 2831 2833 2835 2837 2840 2842 2845 2848 2851 2855 2858 2862 2866 2870 2875 2880 2884 2889 2893 2897 2902 2906 2910 2913 2918 2923 2928 2932 2935 2939 2943 2946 2950
2791 2790 2789 2789 2788 2788 2788 2788 2788 2788 2788 2788 2788 2788 2788 2788 2789 2789 2789 2789 2789 2789 2789 2790 2791 2791 2792 2793 2793 2795 2796 2796 2796 2796 2797 2798 2800 2802 2803 2804 2804 2805 2805 2806 2808 2809 2810 2813 2816 2818 2821 2823 2826 2828 2831 2833 2835 2838 2840 2843 2846 2849 2853 2856 2860 2863 2868 2872 2877 2882 2887 2891 2895 2899 2903 2907 2911 2915 2920 2925 2929 2933 2937 2940 2943 2947
2790 2789 2789 2788 2788 2788 2788 2788 2788 2788 2788 2787 2787 2787 2787 2787 2787 2787 2788 2788 2788 2788 2788 2789 2790 2790 2791 2792 2793 2794 2795 2795 2794 2795 2796 2798 2799 2801 2802 2803 2803 2804 2804 2805 2806 2808 2809 2812 2814 2817 2819 2822 2824 2827 2829 2831 2834 2836 2838 2841 2844 2847 2851 2854 2858 2861 2865 2870 2875 2879 2884 2889 2893 2897 2900 2904 2908 2912 2917 2923 2927 2931 2934 2938 2942 2945
2790 2789 2788 2788 2787 2787 2787 2787 2786 2786 2786 2786 2786 2786 2786 2786 2786 2786 2787 2787 2787 2788 2788 2788 2789 2790 2790 2791 2792 2793 2794 2794 2794 2794 2795 2797 2798 2800 2801 2802 2803 2803 2803 2804 2805 2807 2809 2811 2813 2815 2818 2820 2823 2825 2827 2830 2832 2834 2837 2839 2842 2845 2848 2852 2855 2859 2863 2867 2872 2877 2882 2887 2890 2894 2898 2902 2906 2910 2914 2920 2925 2929 2933 2937 2940 2944
2790 2789 2788 2788 2787 2786 2786 2786 2785 2785 2785 2785 2785 2785 2785 2785 2785 2786 2786 2786 2787 2787 2787 2788 2788 2789 2790 2791 2792 2793 2793 2793 2793 2794 2795 2796 2797 2798 2800 2801 2802 2802 2803 2803 2804 2806 2807 2809 2811 2813 2816 2818 2821 2823 2826 2828 2830 2832 2834 2837 2840 2843 2846 2849 2853 2857 2861 2865 2869 2874 2879 2884 2888 2892 2896 2900 2904 2908 2913 2919 2924 2928 2932 2936 2939 2943
2791 2789 2788 2788 2787 2786 2786 2785 2785 2784 2784 2784 2784 2784 2784 2785 2785 2785 2786 2786 2786 2787 2787 2788 2788 2789 2790 2790 2791 2792 2793 2793 2793 2794 2795 2796 2797 2798 2799 2800 2801 2802 2802 2803 2804 2805 2806 2807 2809 2811 2814 2817 2819 2822 2824 2826 2828 2830 2833 2835 2838 2841 2844 2847 2851 2855 2858 2863 2867 2872 2877 2882 2886 2890 2894 2899 2903 2908 2913 2918 2923 2927 2931 2935 2938 2942
2791 2790 2789 2788 2787 2786 2786 2785 2785 2784 2784 2784 2784 2784 2784 2784 2785 2785 2786 2786 2786 2787 2787 2788 2788 2789 2790 2790 2791 2792 2792 2793 2793 2794 2794 2795 2796 2797 2798 2799 2800 2801 2802 2803 2803 2804 2805 2806 2808 2810 2813 2815 2817 2819 2822 2824 2826 2829 2831 2833 2836 2839 2842 2846 2850 2853 2856 2861 2865 2870 2875 2880 2884 2888 2893 2897 2902 2908 2913 2918 2922 2926 2930 2934 2937 2940
2792 2790 2789 2788 2787 2787 2786 2786 2785 2785 2784 2784 2784 2784 2784 2785 2785 2785 2785 2786 2786 2786 2787 2788 2788 2789 2790 2790 2791 2792 2792 2793 2793 2793 2794 2795 2795 2796 2798 2799 2800 2800 2801 2802 2803 2803 2804 2805 2807 2809 2811 2813 2815 2818 2820 2822 2824 2827 2829 2831 2833 2836 2840 2844 2848 2851 2854 2859 2863 2868 2873 2878 2882 2886 2891 2896 2901 2907 2912 2917 2921 2925 2929 2933 2936 2939
2792 2791 2789 2788 2788 2787 2786 2786 2786 2785 2785 2785 2785 2785 2785 2785 2785 2785 2785 2786 2786 2787 2787 2788 2788 2789 2790 2790 2791 2792 2792 2792 2793 2793 2794 2794 2795 2796 2797 2798 2799 2799 2800 2800 2801 2802 2803 2804 2805 2807 2809 2812 2814 2816 2818 2820 2822 2824 2826 2829 2831 2834 2837 2841 2845 2849 2853 2857 2862 2867 2871 2875 2879 2884 2889 2894 2900 2905 2909 2913 2917 2921 2926 2930 2933 2936
2792 2791 2790 2789 2788 2787 2787 2786 2786 2786 2785 2785 2785 2785 2785 2785 2785 2786 2786 2786 2786 2787 2787 2788 2788 2789 2790 2790 2791 2791 2792 2792 2792 2793 2793 2794 2794 2795 2796 2797 2798 2798 2799 2799 2800 2801 2802 2803 2804 2806 2808 2810 2812 2814 2817 2818 2820 2822 2825 2828 2831 2833 2836 2839 2843 2847 2851 2855 2860 2865 2869 2873 2877 2882 2887 2892 2897 2902 2905 2909 2913 2917 2921 2925 2928 2932
2793 2791 2790 2789 2788 2788 2787 2787 2786 2786 2785 2785 2785 2785 2785 2785 2785 2786 2786 2786 2786 2787 2787 2788 2788 2789 2789 2790 2791 2791 2791 2792 2792 2792 2793 2793 2794 2795 2795 2796 2796 2797 2798 2798 2798 2799 2800 2802 2803 2805 2807 2809 2810 2812 2814 2816 2818 2821 2824 2826 2828 2830 2834 2838 2842 2846 2850 2854 2858 2863 2867 2871 2876 2880 2885 2890 2895 2900 2904 2908 2912 2915 2919 2922 2925 2929
2793 2792 2791 2790 2789 2788 2788 2787 2786 2786 2786 2785 2785 2785 2785 2786 2786 2786 2786 2786 2786 2787 2787 2788 2788 2788 2789 2789 2790 2790 2790 2791 2791 2791 2792 2792 2793 2793 2794 2795 2795 2796 2796 2797 2798 2798 2799 2801 2802 2803 2805 2807 2808 2810 2812 2814 2816 2818 2821 2823 2825 2827 2830 2835 2839 2844 2848 2852 2856 2860 2863 2869 2874 2879 2884 2888 2894 2899 2904 2908 2911 2914 2917 2920 2924 2928
2793 2792 2791 2790 2789 2789 2788 2787 2787 2786 2786 2786 2785 2785 2786 2786 2786 2786 2786 2786 2786 2787 2787 2788 2788 2788 2789 2789 2789 2789 2790 2790 2790 2791 2791 2791 2792 2793 2793 2794 2794 2795 2795 2796 2797 2798 2798 2799 2800 2802 2803 2804 2806 2808 2810 2813 2815 2817 2819 2822 2825 2828 2830 2833 2836 2840 2845 2850 2854 2858 2863 2868 2873 2878 2882 2887 2893 2898 2903 2907 2910 2913 2915 2918 2922 2926
2794 2793 2792 2791 2790 2789 2788 2788 2787 2786 2786 2786 2786 2786 2786 2786 2786 2786 2786 2786 2786 2787 2787 2788 2788 2788 2788 2788 2789 2789 2789 2789 2790 2790 2790 2790 2791 2792 2792 2793 2793 2794 2794 2795 2796 2797 2798 2798 2799 2800 2801 2802 2804 2806 2808 2810 2812 2815 2817 2820 2823 2827 2830 2832 2835 2839 2843 2848 2852 2857 2861 2867 2872 2877 2882 2887 2891 2896 2900 2903 2907 2911 2914 2918 2921 2925
2795 2794 2793 2792 2791 2790 2789 2788 2788 2787 2787 2786 2786 2786 2786 2786 2786 2786 2786 2786 2787 2787 2787 2787 2788 2788 2788 2788 2789 2789 2789 2789 2789 2789 2790 2790 2790 2790 2791 2792 2793 2793 2793 2794 2795 2796 2796 2797 2797 2798 2798 2800 2801 2803 2806 2808 2810 2813 2815 2818 2821 2824 2827 2829 2833 2838 2841 2845 2850 2854 2859 2864 2870 2875 2880 2884 2888 2892 2896 2899 2903 2908 2911 2915 2920 2924
2796 2795 2794 2793 2792 2791 2790 2789 2788 2788 2787 2787 2787 2786 2786 2786 2785 2785 2786 2786 2787 2787 2787 2787 2788 2788 2788 2788 2789 2789 2789 2789 2788 2788 2789 2789 2789 2789 2790 2791 2792 2792 2793 2793 2793 2794 2794 2795 2795 2796 2796 2797 2799 2802 2805 2807 2809 2811 2814 2817 2820 2823 2826 2829 2833 2836 2839 2844 2848 2853 2858 2863 2868 2872 2876 2879 2883 2888 2892 2896 2900 2904 2908 2913 2917 2921
2797 2796 2795 2793 2793 2792 2791 2790 2789 2788 2788 2788 2787 2787 2786 2786 2785 2786 2786 2787 2787 2787 2787 2787 2788 2788 2788 2788 2788 2788 2788 2788 2788 2788 2788 2788 2788 2788 2789 2790 2790 2790 2791 2791 2791 2791 2791 2792 2793 2793 2794 2795 2798 2800 2803 2805 2807 2810 2813 2815 2818 2822 2826 2830 2833 2835 2838 2843 2848 2852 2857 2862 2866 2870 2873 2877 2881 2885 2890 2895 2899 2903 2906 2911 2915 2919
2798 2797 2796 2794 2793 2792 2792 2791 2790 2789 2789 2788 2788 2787 2787 2787 2786 2787 2787 2787 2787 2787 2787 2787 2787 2787 2787 2787 2787 2787 2787 2787 2787 2787 2787 2787 2787 2788 2788 2788 2788 2788 2788 2788 2787 2787 2788 2788 2789 2791 2792 2794 2797 2799 2802 2804 2806 2808 2812 2814 2817 2820 2823 2828 2831 2834 2838 2843 2847 2851 2855 2860 2863 2866 2870 2875 2880 2884 2889 2893 2897 2901 2905 2909 2914 2918
2799 2798 2797 2795 2794 2793 2792 2791 2791 2790 2789 2789 2788 2788 2788 2788 2788 2788 2787 2787 2787 2788 2788 2788 2787 2787 2787 2787 2787 2786 2785 2785 2786 2786 2786 2787 2787 2787 2786 2786 2786 2785 2784 2784 2783 2784 2784 2786 2788 2789 2791 2793 2796 2798 2800 2802 2804 2807 2810 2812 2815 2818 2821 2825 2828 2832 2837 2841 2845 2849 2854 2858 2861 2863 2868 2873 2877 2881 2886 2890 2894 2899 2903 2908 2912 2917
2799 2798 2797 2796 2795 2794 2793 2792 2791 2791 2790 2789 2789 2788 2788 2788 2788 2788 2788 2788 2788 2788 2788 2788 2788 2788 2788 2787 2786 2785 2785 2785 2785 2785 2786 2786 2786 2786 2785 2784 2783 2783 2782 2781 2781 2782 2783 2785 2787 2788 2791 2793 2795 2797 2799 2801 2803 2806 2808 2810 2813 2816 2820 2823 2827 2831 2835 2838 2843 2848 2854 2858 2861 2864 2868 2872 2875 2878 2883 2888 2892 2897 2901 2906 2910 2915
2800 2799 2798 2797 2796 2795 2794 2793 2792 2792 2791 2790 2790 2789 2789 2788 2788 2788 2788 2788 2788 2788 2788 2788 2788 2788 2788 2787 2786 2785 2785 2785 2785 2785 2785 2785 2785 2784 2783 2782 2781 2780 2780 2780 2780 2781 2783 2784 2786 2788 2789 2791 2793 2795 2797 2800 2802 2804 2806 2808 2812 2815 2819 2823 2826 2829 2833 2837 2841 2846 2851 2855 2858 2863 2867 2870 2874 2878 2882 2886 2890 2894 2899 2903 2908 2913